Airfield :
LOGIN :

Register | Disclaimer

   EN    FR    IT 

 










Legend :    VFR   Marginal VFR   IFR   Intensive IFR   Very Intensive IFR
Visi :
Ceiling :
>= 8 km
>= 3000ft
5 to 8 km
1000 to 3000 ft
1500m to 5 km
500 to 1000 ft
800 to 1500m
200 to 500 ft
< 800m
< 200 ft
Symbols :   Thunderstorms  Fog  Heavy snow  Heavy precipitations  Wind > 20 kt
SIGMETs :     Misc.  Thunderstorms  Icing  Turbulence  Mountain Waves  Volcanic Ashes







- Airport Elevation : 1 ft
- Download approach charts


EGCK - Caernarfon

CURRENT METAR :
  • 211220Z 29009KT CAVOK 16/08 Q1018

EXPIRED METARs :
  • 211150Z 29007KT CAVOK 17/07 Q1018
  • 211120Z 29006KT CAVOK 17/08 Q1018
  • 211050Z 29007KT CAVOK 16/06 Q1018
  • 211020Z 32005KT 290V010 CAVOK 17/08 Q1018
  • 210950Z 35005KT 320V060 CAVOK 17/09 Q1018

TAF TAF EGCK
Valid from the 21 at 12:00 until the 21 at 21:00 UTC


211101Z 2112/2121 30009KT CAVOK
BECMG 2116/2119 01010KT
No reported NOTAMs for that airfield.



MET'MAP, your aeronautical weather chart ! - Copyright ORBIFLY December 2007 - Disclaimer

ORBIFLY MET'MAP TEAM :

Programming & Development : Alexandra Zaïnal
Concept & Development : Baudouin d'Aumeries
Co-Development & Prog : Marc-Olivier Méhu
Technical & hardware support : Manuel Goepfert

Contact : metmap@orbifly.com




SOURCES & CREDITS :

   NOAA